Miscellaneous Local Product
Issued by NWS North Platte, NE

Home | Current Version | Previous Version | Text Only | Print | Product List | Glossary On
Versions: 1 2 3 4 5 6 7 8 9 10 11 12 13 14 15 16 17 18 19 20 21 22 23 24 25 26 27 28 29 30 31 32 33 34 35 36 37 38 39 40 41 42 43 44 45 46 47 48 49 50
000
AXUS43 KLBF 071310
MISLBF


WESTERN AND NORTH CENTRAL NEBRASKA HOURLY WEATHER ROUNDUP
NATIONAL WEATHER SERVICE NORTH PLATTE NE
700 AM CST SUN FEB 07 2016

NOTE: "FAIR" INDICATES FEW OR NO CLOUDS BELOW 12,000 FEET WITH NO
SIGNIFICANT WEATHER AND/OR OBSTRUCTIONS TO VISIBILITY.

NOTE: STATIONS NOT REPORTING VARIABLES SUCH AS SKY/WEATHER OR
PRESSURE ARE PROVIDED BY THE NEBRASKA DEPARTMENT OF
ROADS...RAWS...AND APRS NETWORKS...AND ARE NOT UNDER
NATIONAL WEATHER SERVICE QUALITY CONTROL.

...OBSERVATIONS IN AND NEAR THE EASTERN PANHANDLE OF NEBRASKA...

CITY           SKY/WX    TMP DP  RH WIND       PRES   REMARKS
PINE RIDGE     CLOUDY    32  21  64 NW6       30.12R WCI  26
CHADRON        CLOUDY    34  22  61 W15       30.17R WCI  24
ALLIANCE       CLOUDY    31  23  72 NW21G29   30.15R WCI  18
SIDNEY         MOCLDY    24  17  74 NW10      30.18R WCI  14
BIG SPRINGS      N/A     32  24  71 NW8         N/A  WCI  25
$$

...OBSERVATIONS IN NORTH CENTRAL NEBRASKA...

CITY           SKY/WX    TMP DP  RH WIND       PRES   REMARKS
VALENTINE      PTCLDY    36  22  56 W14G22    30.05R WCI  27
THEDFORD       CLOUDY    36  24  63 NW12      30.10R WCI  28
AINSWORTH      CLOUDY    37  21  52 NW22G31   30.04R WCI  27
O`NEILL        PTCLDY    37  25  61 W15       29.99F WCI  28
ORD            MOCLDY    36  23  59 NW13      30.04R WCI  27
BROKEN BOW     MOCLDY    37  23  56 NW17      30.06R WCI  27
BUTTE            N/A     35  27  73 W25G35      N/A  WCI  22
CHAMBERS         N/A     34  21  59 W7          N/A  WCI  28
EWING            N/A     31  24  75 W7          N/A  WCI  24
$$

...OBSERVATIONS IN SOUTHWEST NEBRASKA AND FAR NORTHEAST COLORADO...

CITY           SKY/WX    TMP DP  RH WIND       PRES   REMARKS
WRAY           FAIR      27  17  66 NW9       30.18R WCI  17
HOLYOKE        FAIR      32  19  59 NW14      30.18R WCI  22
IMPERIAL       CLOUDY    32  17  54 NW17      30.16R WCI  21
OGALLALA       CLOUDY    32  20  61 NW12      30.16R WCI  23
NORTH PLATTE   CLOUDY    32  22  66 NW17      30.12R WCI  21
MCCOOK         MOCLDY    30  21  69 W12       30.14R WCI  20
LEXINGTON      PTCLDY    30  24  77 W12       30.10R WCI  21
PAXTON           N/A     33  26  77 W5          N/A  WCI  28
STAPLETON        N/A     33  26  75 CALM        N/A
GOTHENBURG       N/A     30  21  69 W5          N/A  WCI  25
CALLAWAY         N/A     35  25  66 NW15        N/A  WCI  25
$$

...OBSERVATIONS IN CENTRAL LINCOLN COUNTY AREA...

CITY           SKY/WX    TMP DP  RH WIND       PRES   REMARKS
N.P. AIRPORT   CLOUDY    32  22  66 NW17      30.12R WCI  21
N.P. DOWNTOWN    N/A     34  25  69 W7G14       N/A  WCI  28
N.P. SOUTHEAST   N/A     34  24  65 NW5         N/A  WCI  30
N.P. HILLCREST   N/A     33  25  72 NW12        N/A  WCI  24
$$

...SOME OBSERVATIONS FROM AROUND THE REGION...

CITY           SKY/WX    TMP DP  RH WIND       PRES   REMARKS
DENVER         CLOUDY    38  14  37 W13       30.18R WCI  30
LARAMIE        CLEAR     25  15  66 W26       30.16R WCI   9
CHEYENNE       CLEAR     29  17  61 N8        30.17R WCI  21
SCOTTSBLUFF    LGT SNOW  31  26  82 NW13G28   30.22R WCI  21
RAPID CITY     PTCLDY    35  12  38 NW32G41   30.10R WCI  21
BISMARCK       FLURRIES  36  27  69 W25G33    29.79R WCI  24
PIERRE         CLEAR     35  25  66 W23G31    29.93F WCI  23
WINNER         CLOUDY    37  24  59 W20       30.00S WCI  27
SIOUX FALLS    MOCLDY    35  25  66 W16G29    29.85R WCI  25
OMAHA          CLOUDY    39  26  59 NW16      29.93S WCI  30
GRAND ISLAND   CLOUDY    36  22  56 NW15      30.06R WCI  27
KANSAS CITY    CLOUDY    37  27  67 W10       29.99S WCI  30
WICHITA        CLOUDY    34  24  67 NW6       30.09R WCI  29
OKLAHOMA CITY  CLOUDY    30  26  85 S9        30.14R WCI  22
LIBERAL        CLOUDY    32  21  64 NW7       30.17R WCI  26
HAYS           CLOUDY    37  21  52 W12       30.13R WCI  30
GOODLAND       CLOUDY    27  17  66 NW13      30.17R WCI  16
$$




USA.gov is the U.S. government's official web portal to all federal, state and local government web resources and services.